SL-8 R/B

Last updated on Mon Feb 16 2026 00:02:14 GMT+0000 (Coordinated Universal Time)

1 21938U 92020B 26046.43482443 .00000097 00000+0 84892-4 0 9996 2 21938 82.9337 170.2797 0028864 2.6889 62.5450 13.75546443698075

Satellite not in orbit